When you browse on this site, cookies collect data to enhance your experience and personalize the content and advertising you see.
Visit our Privacy Policy to learn more. By continuing to use the site, you agree to this use of cookies and data.
  • In Spain
  • List of Countries
  • For 7 days
  • Water Temperature
  • Satellite Maps
  • Weather Map
  • Weather Widgets
  • user-avatar
    Login

    Hourly Weather Yurevka

    Today, 22 March, Friday

    Time Temperature Precipitation Wind Pressure Humidity
    00:00 -2°C° 0 mm 2 mps 750 mmHg 92%
    01:00 -2°C° 0 mm 2 mps 750 mmHg 91%
    02:00 -2°C° 0 mm 2 mps 750 mmHg 91%
    03:00 -2°C° 0 mm 2 mps 749 mmHg 91%
    04:00 -2°C° 0 mm 3 mps 749 mmHg 91%
    05:00 -1°C° 0 mm 3 mps 748 mmHg 91%
    06:00 -2°C° 0.1 mm 4 mps 747 mmHg 89%
    07:00 -1°C° 0.1 mm 5 mps 746 mmHg 87%
    08:00 -1°C° 0.1 mm 6 mps 745 mmHg 86%
    09:00 -1°C° 0.9 mm 6 mps 744 mmHg 87%
    10:00 -1°C° 0.9 mm 7 mps 743 mmHg 89%
    11:00 -1°C° 0.9 mm 7 mps 742 mmHg 91%
    12:00 -1°C° 0.8 mm 8 mps 741 mmHg 90%
    13:00 -1°C° 0.8 mm 8 mps 741 mmHg 88%
    14:00 0°C° 0.8 mm 8 mps 741 mmHg 87%
    15:00 -1°C° 0.4 mm 8 mps 741 mmHg 84%
    16:00 -1°C° 0.4 mm 8 mps 742 mmHg 82%
    17:00 -2°C° 0.4 mm 8 mps 742 mmHg 79%
    18:00 -2°C° 0.2 mm 8 mps 742 mmHg 80%
    19:00 -4°C° 0.2 mm 8 mps 743 mmHg 81%
    20:00 -3°C° 0.2 mm 7 mps 743 mmHg 83%
    21:00 -3°C° 0.1 mm 7 mps 743 mmHg 83%
    22:00 -3°C° 0.1 mm 7 mps 743 mmHg 84%
    23:00 -3°C° 0.1 mm 7 mps 743 mmHg 85%

    Tomorrow, 23 March, Saturday

    Time Temperature Precipitation Wind Pressure Humidity
    00:00 -3°C° 0.1 mm 7 mps 743 mmHg 86%
    01:00 -3°C° 0.1 mm 7 mps 743 mmHg 86%
    02:00 -3°C° 0.1 mm 7 mps 743 mmHg 87%
    03:00 -3°C° 0.1 mm 7 mps 744 mmHg 88%
    04:00 -3°C° 0.1 mm 7 mps 744 mmHg 89%
    05:00 -2°C° 0.1 mm 7 mps 745 mmHg 90%
    06:00 -2°C° 0 mm 7 mps 746 mmHg 89%
    07:00 -2°C° 0 mm 7 mps 747 mmHg 89%
    08:00 -2°C° 0 mm 7 mps 748 mmHg 89%
    09:00 -2°C° 0 mm 6 mps 749 mmHg 88%
    10:00 -2°C° 0 mm 6 mps 750 mmHg 86%
    11:00 -2°C° 0 mm 6 mps 750 mmHg 85%
    12:00 -1°C° 0 mm 5 mps 751 mmHg 84%
    13:00 -1°C° 0 mm 5 mps 751 mmHg 83%
    14:00 -1°C° 0 mm 5 mps 751 mmHg 82%
    15:00 -1°C° 0 mm 4 mps 751 mmHg 83%
    16:00 0°C° 0 mm 3 mps 751 mmHg 84%
    17:00 +1°C° 0 mm 2 mps 751 mmHg 84%
    18:00 -1°C° 0 mm 2 mps 751 mmHg 86%
    19:00 -1°C° 0 mm 2 mps 752 mmHg 88%
    20:00 0°C° 0 mm 1 mps 752 mmHg 89%
    21:00 0°C° 0 mm 1 mps 752 mmHg 89%
    22:00 0°C° 0 mm 1 mps 751 mmHg 88%
    23:00 0°C° 0 mm 1 mps 751 mmHg 88%

    Day after tomorrow, 24 March, Sunday

    Time Temperature Precipitation Wind Pressure Humidity
    00:00 0°C° 0 mm 1 mps 751 mmHg 88%
    01:00 -1°C° 0 mm 1 mps 751 mmHg 88%
    02:00 -1°C° 0 mm 1 mps 750 mmHg 88%
    03:00 -3°C° 0 mm 2 mps 750 mmHg 88%
    04:00 -3°C° 0 mm 2 mps 749 mmHg 88%
    05:00 -3°C° 0 mm 2 mps 749 mmHg 88%
    06:00 -4°C° 0 mm 3 mps 749 mmHg 86%
    07:00 -2°C° 0 mm 3 mps 748 mmHg 84%
    08:00 -2°C° 0 mm 4 mps 748 mmHg 82%
    09:00 -2°C° 0.2 mm 4 mps 747 mmHg 84%
    10:00 -2°C° 0.2 mm 5 mps 747 mmHg 86%
    11:00 -1°C° 0.2 mm 5 mps 746 mmHg 87%
    12:00 -1°C° 0.2 mm 5 mps 746 mmHg 88%
    13:00 -1°C° 0.2 mm 5 mps 745 mmHg 89%
    14:00 -1°C° 0.2 mm 5 mps 745 mmHg 90%
    15:00 0°C° 0.1 mm 4 mps 744 mmHg 91%
    16:00 0°C° 0.1 mm 4 mps 744 mmHg 92%
    17:00 +1°C° 0.1 mm 3 mps 744 mmHg 93%
    18:00 +1°C° 0.1 mm 3 mps 744 mmHg 92%
    19:00 0°C° 0.1 mm 3 mps 744 mmHg 91%
    20:00 0°C° 0.1 mm 3 mps 744 mmHg 90%
    21:00 0°C° 0 mm 3 mps 744 mmHg 89%
    22:00 -1°C° 0 mm 3 mps 744 mmHg 88%
    23:00 -2°C° 0 mm 3 mps 744 mmHg 87%

    25 March, Monday

    Time Temperature Precipitation Wind Pressure Humidity
    00:00 -2°C° 0 mm 3 mps 744 mmHg 87%
    01:00 -2°C° 0 mm 3 mps 744 mmHg 87%
    02:00 -4°C° 0 mm 3 mps 744 mmHg 88%
    03:00 -4°C° 0 mm 3 mps 744 mmHg 88%
    04:00 -4°C° 0 mm 3 mps 744 mmHg 89%
    05:00 -4°C° 0 mm 3 mps 744 mmHg 90%
    06:00 -4°C° 0 mm 4 mps 744 mmHg 87%
    07:00 -3°C° 0 mm 4 mps 744 mmHg 84%
    08:00 -4°C° 0 mm 5 mps 745 mmHg 81%
    09:00 -2°C° 0 mm 5 mps 745 mmHg 77%
    10:00 -1°C° 0 mm 5 mps 745 mmHg 72%
    11:00 -1°C° 0 mm 5 mps 745 mmHg 68%
    12:00 0°C° 0.1 mm 5 mps 745 mmHg 66%
    13:00 0°C° 0.1 mm 5 mps 745 mmHg 64%
    14:00 0°C° 0.1 mm 5 mps 745 mmHg 62%
    15:00 0°C° 0 mm 4 mps 745 mmHg 64%
    16:00 -1°C° 0 mm 4 mps 745 mmHg 66%
    17:00 0°C° 0 mm 3 mps 745 mmHg 68%
    18:00 -1°C° 0 mm 2 mps 745 mmHg 70%
    19:00 -1°C° 0 mm 2 mps 746 mmHg 73%
    20:00 -2°C° 0 mm 2 mps 746 mmHg 76%
    21:00 -2°C° 0 mm 2 mps 746 mmHg 76%
    22:00 -2°C° 0 mm 2 mps 746 mmHg 77%
    23:00 -2°C° 0 mm 2 mps 746 mmHg 78%

    26 March, Tuesday

    Time Temperature Precipitation Wind Pressure Humidity
    00:00 -2°C° 0 mm 3 mps 746 mmHg 79%
    01:00 -2°C° 0 mm 3 mps 746 mmHg 79%
    02:00 -2°C° 0 mm 3 mps 746 mmHg 80%
    03:00 -2°C° 0 mm 3 mps 746 mmHg 80%
    04:00 -2°C° 0 mm 3 mps 746 mmHg 80%
    05:00 -2°C° 0 mm 3 mps 746 mmHg 80%
    06:00 -3°C° 0 mm 4 mps 746 mmHg 75%
    07:00 -2°C° 0 mm 4 mps 746 mmHg 71%
    08:00 -1°C° 0 mm 5 mps 746 mmHg 66%
    09:00 0°C° 0 mm 5 mps 746 mmHg 62%
    10:00 +1°C° 0 mm 5 mps 746 mmHg 57%
    11:00 +2°C° 0 mm 5 mps 746 mmHg 52%
    12:00 +2°C° 0 mm 5 mps 746 mmHg 51%
    13:00 +3°C° 0 mm 5 mps 746 mmHg 50%
    14:00 +3°C° 0 mm 5 mps 746 mmHg 49%
    15:00 +3°C° 0.2 mm 4 mps 746 mmHg 61%
    16:00 +2°C° 0.2 mm 3 mps 746 mmHg 72%
    17:00 +2°C° 0.2 mm 2 mps 746 mmHg 83%
    18:00 +1°C° 0.1 mm 2 mps 746 mmHg 86%
    19:00 -1°C° 0.1 mm 2 mps 746 mmHg 90%
    20:00 -2°C° 0.1 mm 2 mps 746 mmHg 93%
    21:00 -2°C° 0 mm 2 mps 746 mmHg 91%
    22:00 -2°C° 0 mm 2 mps 745 mmHg 89%
    23:00 -3°C° 0 mm 2 mps 745 mmHg 86%

    27 March, Wednesday

    Time Temperature Precipitation Wind Pressure Humidity
    00:00 -2°C° 0 mm 3 mps 745 mmHg 83%
    01:00 -2°C° 0 mm 3 mps 744 mmHg 79%
    02:00 -3°C° 0 mm 4 mps 744 mmHg 75%
    03:00 -3°C° 0.1 mm 4 mps 743 mmHg 76%
    04:00 -3°C° 0.1 mm 4 mps 743 mmHg 76%
    05:00 -4°C° 0.1 mm 5 mps 742 mmHg 77%
    06:00 -4°C° 0.3 mm 5 mps 742 mmHg 78%
    07:00 -3°C° 0.3 mm 6 mps 742 mmHg 79%
    08:00 -3°C° 0.3 mm 6 mps 741 mmHg 80%
    09:00 -2°C° 0.2 mm 6 mps 741 mmHg 75%
    10:00 -1°C° 0.2 mm 5 mps 742 mmHg 70%
    11:00 0°C° 0.2 mm 5 mps 742 mmHg 65%
    12:00 0°C° 0.3 mm 5 mps 742 mmHg 64%
    13:00 -1°C° 0.3 mm 6 mps 742 mmHg 62%
    14:00 -1°C° 0.3 mm 6 mps 743 mmHg 60%
    15:00 -2°C° 0.1 mm 6 mps 743 mmHg 62%
    16:00 -1°C° 0.1 mm 5 mps 744 mmHg 65%
    17:00 -2°C° 0.1 mm 5 mps 744 mmHg 67%
    18:00 -2°C° 0 mm 5 mps 745 mmHg 71%
    19:00 -4°C° 0 mm 5 mps 746 mmHg 75%
    20:00 -4°C° 0 mm 6 mps 747 mmHg 79%
    21:00 -4°C° 0 mm 5 mps 747 mmHg 82%
    22:00 -4°C° 0 mm 5 mps 748 mmHg 84%
    23:00 -5°C° 0 mm 5 mps 749 mmHg 87%
    Show more